Time,TemperatureF,DewpointF,PressureIn,WindDirection,WindDirectionDegrees,WindSpeedMPH,WindSpeedGustMPH,Humidity,HourlyPrecipIn,Conditions,Clouds,dailyrainin,SoftwareType,DateUTC
2013-03-09 00:00:00,37.9,30.0,30.06,NE,45,1.0,5.0,73,0.03,,SKC,0.00,VWS V14.01,2013-03-09 05:00:00,
2013-03-09 00:10:00,38.0,29.8,30.06,NE,45,1.0,10.0,72,0.02,,SKC,0.00,VWS V14.01,2013-03-09 05:10:00,
2013-03-09 00:20:00,38.0,29.8,30.06,ESE,112,1.0,5.0,72,0.03,,SKC,0.01,VWS V14.01,2013-03-09 05:20:00,
2013-03-09 00:30:00,37.9,29.7,30.07,ENE,68,1.0,6.0,72,0.02,,SKC,0.01,VWS V14.01,2013-03-09 05:30:00,
2013-03-09 00:40:00,37.8,29.6,30.07,NNE,22,1.0,5.0,72,0.02,,SKC,0.01,VWS V14.01,2013-03-09 05:40:00,
2013-03-09 00:50:00,37.8,29.3,30.07,NW,315,1.0,6.0,71,0.02,,SKC,0.01,VWS V14.01,2013-03-09 05:50:00,
2013-03-09 01:00:00,37.8,29.3,30.07,NW,315,1.0,8.0,71,0.02,,SKC,0.02,VWS V14.01,2013-03-09 06:00:00,
2013-03-09 01:10:00,37.6,29.1,30.08,SE,135,1.0,6.0,71,0.02,,SKC,0.02,VWS V14.01,2013-03-09 06:10:00,
2013-03-09 01:20:00,37.6,29.1,30.08,NE,45,1.0,4.0,71,0.02,,SKC,0.02,VWS V14.01,2013-03-09 06:20:00,
2013-03-09 01:30:00,37.5,29.0,30.08,NNE,22,1.0,5.0,71,0.01,,SKC,0.02,VWS V14.01,2013-03-09 06:30:00,
2013-03-09 01:40:00,37.3,28.8,30.07,East,90,1.0,6.0,71,0.02,,SKC,0.03,VWS V14.01,2013-03-09 06:40:00,
2013-03-09 01:50:00,37.2,28.7,30.07,ENE,68,1.0,6.0,71,0.02,,SKC,0.03,VWS V14.01,2013-03-09 06:50:00,
2013-03-09 02:00:00,37.2,28.0,30.07,WSW,248,1.0,5.0,69,0.02,,SKC,0.03,VWS V14.01,2013-03-09 07:00:00,
2013-03-09 02:10:00,37.2,28.3,30.07,NW,315,1.0,6.0,70,0.01,,SKC,0.03,VWS V14.01,2013-03-09 07:10:00,
2013-03-09 02:20:00,37.0,28.1,30.07,NW,315,1.0,5.0,70,0.01,,SKC,0.03,VWS V14.01,2013-03-09 07:20:00,
2013-03-09 02:30:00,37.0,28.1,30.07,WSW,248,1.0,5.0,70,0.01,,SKC,0.03,VWS V14.01,2013-03-09 07:30:00,
2013-03-09 02:40:00,37.0,28.1,30.07,ENE,68,1.0,5.0,70,0.01,,SKC,0.03,VWS V14.01,2013-03-09 07:40:00,
2013-03-09 02:50:00,36.9,28.0,30.07,NNE,22,1.0,6.0,70,0.01,,SKC,0.04,VWS V14.01,2013-03-09 07:50:00,
2013-03-09 03:00:00,36.8,28.0,30.07,NE,45,1.0,5.0,70,0.01,,SKC,0.04,VWS V14.01,2013-03-09 08:00:00,
2013-03-09 03:10:00,36.6,27.4,30.07,NNW,338,1.0,5.0,69,0.01,,SKC,0.04,VWS V14.01,2013-03-09 08:10:00,
2013-03-09 03:20:00,36.6,27.4,30.07,WNW,292,1.0,7.0,69,0.01,,SKC,0.04,VWS V14.01,2013-03-09 08:20:00,
2013-03-09 03:30:00,36.5,27.7,30.07,NE,45,1.0,7.0,70,0.01,,SKC,0.04,VWS V14.01,2013-03-09 08:30:00,
2013-03-09 03:40:00,36.3,27.1,30.07,SE,135,1.0,7.0,69,0.01,,SKC,0.04,VWS V14.01,2013-03-09 08:40:00,
2013-03-09 03:50:00,36.3,26.8,30.07,NE,45,1.0,7.0,68,0.01,,SKC,0.04,VWS V14.01,2013-03-09 08:50:00,
2013-03-09 04:00:00,36.3,26.8,30.07,ENE,68,1.0,5.0,68,0.00,,SKC,0.04,VWS V14.01,2013-03-09 09:00:00,
2013-03-09 04:10:00,36.3,27.1,30.08,ENE,68,1.0,4.0,69,0.00,,SKC,0.04,VWS V14.01,2013-03-09 09:10:00,
2013-03-09 04:20:00,36.2,26.7,30.09,NE,45,1.0,5.0,68,0.01,,SKC,0.05,VWS V14.01,2013-03-09 09:20:00,
2013-03-09 04:30:00,36.2,26.7,30.09,NE,45,1.0,6.0,68,0.01,,SKC,0.05,VWS V14.01,2013-03-09 09:30:00,
2013-03-09 04:40:00,36.2,26.7,30.10,ESE,112,1.0,7.0,68,0.01,,SKC,0.05,VWS V14.01,2013-03-09 09:40:00,
2013-03-09 04:50:00,36.2,26.3,30.10,ESE,112,1.0,7.0,67,0.01,,SKC,0.05,VWS V14.01,2013-03-09 09:50:00,
2013-03-09 05:00:00,36.2,26.3,30.10,NE,45,1.0,6.0,67,0.01,,SKC,0.05,VWS V14.01,2013-03-09 10:00:00,
2013-03-09 05:10:00,36.0,26.1,30.11,ENE,68,1.0,5.0,67,0.01,,SKC,0.05,VWS V14.01,2013-03-09 10:10:00,
2013-03-09 05:20:00,36.0,25.8,30.11,NE,45,1.0,6.0,66,0.01,,SKC,0.05,VWS V14.01,2013-03-09 10:20:00,
2013-03-09 05:30:00,36.0,25.8,30.11,NE,45,1.0,6.0,66,0.00,,SKC,0.05,VWS V14.01,2013-03-09 10:30:00,
2013-03-09 05:40:00,35.9,25.7,30.12,SE,135,1.0,5.0,66,0.00,,SKC,0.05,VWS V14.01,2013-03-09 10:40:00,
2013-03-09 05:50:00,35.9,25.7,30.12,ESE,112,1.0,6.0,66,0.00,,SKC,0.05,VWS V14.01,2013-03-09 10:50:00,
2013-03-09 06:00:00,35.8,25.9,30.13,SE,135,1.0,5.0,67,0.00,,SKC,0.05,VWS V14.01,2013-03-09 11:00:00,
2013-03-09 06:10:00,35.6,25.7,30.14,ESE,112,1.0,5.0,67,0.00,,SKC,0.05,VWS V14.01,2013-03-09 11:10:00,
2013-03-09 06:20:00,35.6,25.7,30.14,NNE,22,1.0,4.0,67,0.00,,SKC,0.05,VWS V14.01,2013-03-09 11:20:00,
2013-03-09 06:30:00,35.6,25.7,30.14,ENE,68,1.0,4.0,67,0.00,,SKC,0.05,VWS V14.01,2013-03-09 11:30:00,
2013-03-09 06:40:00,35.6,25.7,30.14,ESE,112,1.0,8.0,67,0.00,,SKC,0.05,VWS V14.01,2013-03-09 11:40:00,
2013-03-09 06:50:00,35.8,25.9,30.14,ENE,68,1.0,5.0,67,0.00,,SKC,0.05,VWS V14.01,2013-03-09 11:50:00,
2013-03-09 07:00:00,36.0,25.8,30.15,ENE,68,1.0,4.0,66,0.00,,SKC,0.05,VWS V14.01,2013-03-09 12:00:00,
2013-03-09 07:10:00,36.2,26.3,30.15,East,90,1.0,4.0,67,0.00,,SKC,0.05,VWS V14.01,2013-03-09 12:10:00,
2013-03-09 07:20:00,36.5,25.9,30.16,East,90,1.0,5.0,65,0.00,,SKC,0.05,VWS V14.01,2013-03-09 12:20:00,
2013-03-09 07:30:00,36.8,26.5,30.16,East,90,1.0,5.0,66,0.01,,SKC,0.06,VWS V14.01,2013-03-09 12:30:00,
2013-03-09 07:40:00,36.9,26.2,30.16,North,0,1.0,4.0,65,0.01,,SKC,0.06,VWS V14.01,2013-03-09 12:40:00,
2013-03-09 07:50:00,36.9,25.5,30.16,ENE,68,1.0,5.0,63,0.01,,SKC,0.06,VWS V14.01,2013-03-09 12:50:00,
2013-03-09 08:00:00,37.0,25.6,30.17,ENE,68,1.0,8.0,63,0.01,,SKC,0.06,VWS V14.01,2013-03-09 13:00:00,
2013-03-09 08:10:00,37.2,25.8,30.16,ENE,68,1.0,8.0,63,0.01,,SKC,0.06,VWS V14.01,2013-03-09 13:10:00,
2013-03-09 08:20:00,37.3,25.5,30.16,SW,225,1.0,7.0,62,0.01,,SKC,0.06,VWS V14.01,2013-03-09 13:20:00,
2013-03-09 08:30:00,37.6,25.8,30.17,East,90,1.0,6.0,62,0.01,,SKC,0.06,VWS V14.01,2013-03-09 13:30:00,
2013-03-09 08:40:00,37.8,26.0,30.17,ENE,68,1.0,9.0,62,0.01,,SKC,0.07,VWS V14.01,2013-03-09 13:40:00,
2013-03-09 08:50:00,38.0,26.1,30.17,NE,45,1.0,5.0,62,0.01,,SKC,0.07,VWS V14.01,2013-03-09 13:50:00,
2013-03-09 09:00:00,38.3,26.4,30.17,ENE,68,1.0,4.0,62,0.01,,SKC,0.07,VWS V14.01,2013-03-09 14:00:00,
2013-03-09 09:10:00,38.6,26.7,30.17,NNE,22,1.0,6.0,62,0.01,,SKC,0.07,VWS V14.01,2013-03-09 14:10:00,
2013-03-09 09:20:00,40.9,26.9,30.18,WNW,300,1.0,5.0,57,0.02,,SKC,0.09,VWS V14.01,2013-03-09 14:20:00,
2013-03-09 09:30:00,39.2,27.3,30.17,East,90,0.0,1.0,62,0.02,,SKC,0.08,VWS V14.01,2013-03-09 14:30:00,
2013-03-09 09:32:00,39.2,27.3,30.17,East,90,0.0,0.0,62,0.02,,SKC,0.08,VWS V14.01,2013-03-09 14:32:00,
2013-03-09 09:37:00,39.3,27.8,30.17,NE,53,0.0,4.0,63,0.02,,SKC,0.08,VWS V14.01,2013-03-09 14:37:00,
2013-03-09 09:40:00,41.6,26.2,30.18,West,273,2.0,5.0,54,0.02,,SKC,0.10,VWS V14.01,2013-03-09 14:40:00,
2013-03-09 09:42:00,39.5,27.6,30.18,North,5,0.0,2.0,62,0.01,,SKC,0.08,VWS V14.01,2013-03-09 14:42:00,
2013-03-09 09:47:00,39.6,27.3,30.17,NNE,20,0.0,3.0,61,0.01,,SKC,0.08,VWS V14.01,2013-03-09 14:47:00,
2013-03-09 09:50:00,42.1,27.1,30.18,East,99,1.0,5.0,55,0.03,,SKC,0.11,VWS V14.01,2013-03-09 14:50:00,
2013-03-09 09:53:00,39.8,27.5,30.18,NNE,20,0.0,1.0,61,0.02,,SKC,0.09,VWS V14.01,2013-03-09 14:53:00,
2013-03-09 09:58:00,39.9,27.6,30.18,East,92,1.0,5.0,61,0.02,,SKC,0.09,VWS V14.01,2013-03-09 14:58:00,
2013-03-09 10:00:00,42.5,26.6,30.18,ENE,65,0.0,4.0,53,0.02,,SKC,0.11,VWS V14.01,2013-03-09 15:00:00,
2013-03-09 10:03:00,40.2,27.4,30.18,East,87,2.0,2.0,60,0.02,,SKC,0.09,VWS V14.01,2013-03-09 15:03:00,
2013-03-09 10:08:00,40.3,27.1,30.18,ENE,67,0.0,5.0,59,0.02,,SKC,0.09,VWS V14.01,2013-03-09 15:08:00,
2013-03-09 10:10:00,43.5,26.6,30.19,SW,218,1.0,5.0,51,0.03,,SKC,0.12,VWS V14.01,2013-03-09 15:10:00,
2013-03-09 10:13:00,40.6,27.0,30.18,ENE,69,2.0,3.0,58,0.02,,SKC,0.09,VWS V14.01,2013-03-09 15:13:00,
2013-03-09 10:18:00,40.8,26.8,30.18,NW,306,1.0,5.0,57,0.02,,SKC,0.09,VWS V14.01,2013-03-09 15:18:00,
2013-03-09 10:20:00,44.2,26.8,30.19,NW,319,0.0,6.0,50,0.03,,SKC,0.12,VWS V14.01,2013-03-09 15:20:00,
2013-03-09 10:23:00,40.9,26.9,30.18,WNW,300,0.0,3.0,57,0.02,,SKC,0.10,VWS V14.01,2013-03-09 15:23:00,
2013-03-09 10:28:00,41.1,26.6,30.18,ENE,68,2.0,5.0,56,0.02,,SKC,0.10,VWS V14.01,2013-03-09 15:28:00,
2013-03-09 10:30:00,44.6,26.6,30.19,NNE,20,2.0,5.0,49,0.04,,SKC,0.13,VWS V14.01,2013-03-09 15:30:00,
2013-03-09 10:33:00,41.3,26.8,30.18,ESE,115,2.0,5.0,56,0.02,,SKC,0.10,VWS V14.01,2013-03-09 15:33:00,
2013-03-09 10:38:00,41.5,26.5,30.18,ENE,64,0.0,5.0,55,0.02,,SKC,0.10,VWS V14.01,2013-03-09 15:38:00,
2013-03-09 10:40:00,45.1,26.6,30.19,NE,43,1.0,4.0,48,0.03,,SKC,0.13,VWS V14.01,2013-03-09 15:40:00,
2013-03-09 10:43:00,41.6,26.2,30.18,West,273,1.0,1.0,54,0.02,,SKC,0.10,VWS V14.01,2013-03-09 15:43:00,
2013-03-09 10:49:00,41.9,26.5,30.18,NE,49,0.0,5.0,54,0.03,,SKC,0.11,VWS V14.01,2013-03-09 15:49:00,
2013-03-09 10:50:00,46.0,25.3,30.19,NE,39,3.0,5.0,44,0.04,,SKC,0.14,VWS V14.01,2013-03-09 15:50:00,
2013-03-09 10:54:00,42.1,27.1,30.18,East,95,2.0,4.0,55,0.02,,SKC,0.11,VWS V14.01,2013-03-09 15:54:00,
2013-03-09 10:59:00,42.3,26.9,30.18,East,99,1.0,4.0,54,0.02,,SKC,0.11,VWS V14.01,2013-03-09 15:59:00,
2013-03-09 11:00:00,46.2,26.0,30.18,NNE,15,0.0,3.0,45,0.04,,SKC,0.15,VWS V14.01,2013-03-09 16:00:00,
2013-03-09 11:04:00,42.8,25.9,30.18,ENE,74,0.0,4.0,51,0.02,,SKC,0.11,VWS V14.01,2013-03-09 16:04:00,
2013-03-09 11:09:00,43.5,27.1,30.19,West,260,3.0,5.0,52,0.03,,SKC,0.12,VWS V14.01,2013-03-09 16:09:00,
2013-03-09 11:10:00,46.4,26.2,30.18,ESE,122,2.0,6.0,45,0.04,,SKC,0.15,VWS V14.01,2013-03-09 16:10:00,
2013-03-09 11:14:00,43.5,27.1,30.18,SW,217,1.0,3.0,52,0.03,,SKC,0.12,VWS V14.01,2013-03-09 16:14:00,
2013-03-09 11:19:00,43.9,27.0,30.18,SW,219,0.0,3.0,51,0.03,,SKC,0.12,VWS V14.01,2013-03-09 16:19:00,
2013-03-09 11:20:00,46.8,26.0,30.18,ESE,115,2.0,5.0,44,0.04,,SKC,0.16,VWS V14.01,2013-03-09 16:20:00,
2013-03-09 11:24:00,44.5,26.5,30.19,NW,308,0.0,5.0,49,0.03,,SKC,0.12,VWS V14.01,2013-03-09 16:24:00,
2013-03-09 11:29:00,44.6,26.6,30.19,NNE,13,2.0,5.0,49,0.04,,SKC,0.13,VWS V14.01,2013-03-09 16:29:00,
2013-03-09 11:30:00,47.4,25.5,30.18,ENE,62,1.0,6.0,42,0.05,,SKC,0.17,VWS V14.01,2013-03-09 16:30:00,
2013-03-09 11:34:00,44.6,25.6,30.19,NNE,33,0.0,4.0,47,0.03,,SKC,0.13,VWS V14.01,2013-03-09 16:34:00,
2013-03-09 11:40:00,44.8,26.8,30.19,NE,44,3.0,4.0,49,0.03,,SKC,0.13,VWS V14.01,2013-03-09 16:40:00,
2013-03-09 11:45:00,45.5,27.5,30.19,NE,45,0.0,4.0,49,0.04,,SKC,0.14,VWS V14.01,2013-03-09 16:45:00,
2013-03-09 11:50:00,45.8,25.1,30.19,NNE,26,3.0,5.0,44,0.04,,SKC,0.14,VWS V14.01,2013-03-09 16:50:00,
2013-03-09 11:55:00,46.0,25.9,30.18,NNE,15,1.0,3.0,45,0.03,,SKC,0.14,VWS V14.01,2013-03-09 16:55:00,
2013-03-09 12:00:00,46.2,25.5,30.18,NNE,15,0.0,3.0,44,0.03,,SKC,0.14,VWS V14.01,2013-03-09 17:00:00,
2013-03-09 12:05:00,46.4,24.6,30.19,East,101,1.0,6.0,42,0.04,,SKC,0.15,VWS V14.01,2013-03-09 17:05:00,
2013-03-09 12:10:00,46.4,25.7,30.18,ESE,122,0.0,6.0,44,0.04,,SKC,0.15,VWS V14.01,2013-03-09 17:10:00,
2013-03-09 12:15:00,46.7,26.0,30.18,SE,124,0.0,5.0,44,0.03,,SKC,0.15,VWS V14.01,2013-03-09 17:15:00,
2013-03-09 12:20:00,46.7,25.4,30.18,ESE,121,0.0,5.0,43,0.04,,SKC,0.16,VWS V14.01,2013-03-09 17:20:00,
2013-03-09 12:25:00,46.8,25.5,30.18,SSE,165,0.0,6.0,43,0.04,,SKC,0.16,VWS V14.01,2013-03-09 17:25:00,
2013-03-09 12:30:00,47.3,26.5,30.18,ENE,63,0.0,6.0,44,0.05,,SKC,0.17,VWS V14.01,2013-03-09 17:30:00,
2013-03-09 12:35:00,47.6,27.9,30.17,ESE,113,0.0,5.0,46,0.04,,SKC,0.17,VWS V14.01,2013-03-09 17:35:00,
2013-03-09 12:40:00,48.0,26.6,30.17,ESE,113,0.0,5.0,43,0.05,,SKC,0.18,VWS V14.01,2013-03-09 17:40:00,
2013-03-09 12:46:00,47.9,25.4,30.17,East,86,0.0,4.0,41,0.05,,SKC,0.18,VWS V14.01,2013-03-09 17:46:00,
2013-03-09 12:50:00,49.4,27.3,30.17,ESE,115,4.0,6.0,42,0.07,,SKC,0.25,VWS V14.01,2013-03-09 17:50:00,
2013-03-09 12:51:00,47.6,26.2,30.17,ENE,74,3.0,6.0,43,0.05,,SKC,0.18,VWS V14.01,2013-03-09 17:51:00,
2013-03-09 12:56:00,47.7,26.9,30.17,East,92,0.0,5.0,44,0.05,,SKC,0.19,VWS V14.01,2013-03-09 17:56:00,
2013-03-09 13:00:00,49.6,29.1,30.17,ESE,105,0.0,5.0,45,0.07,,SKC,0.26,VWS V14.01,2013-03-09 18:00:00,
2013-03-09 13:01:00,48.2,25.6,30.17,South,177,1.0,6.0,41,0.05,,SKC,0.19,VWS V14.01,2013-03-09 18:01:00,
2013-03-09 13:06:00,48.3,25.7,30.17,NNE,30,3.0,5.0,41,0.05,,SKC,0.20,VWS V14.01,2013-03-09 18:06:00,
2013-03-09 13:10:00,49.4,28.4,30.17,East,99,0.0,2.0,44,0.09,,SKC,0.28,VWS V14.01,2013-03-09 18:10:00,
2013-03-09 13:11:00,48.8,26.2,30.17,SSW,211,0.0,5.0,41,0.05,,SKC,0.20,VWS V14.01,2013-03-09 18:11:00,
2013-03-09 13:16:00,48.8,26.2,30.17,South,172,4.0,4.0,41,0.06,,SKC,0.21,VWS V14.01,2013-03-09 18:16:00,
2013-03-09 13:20:00,49.1,31.3,30.17,East,99,0.0,4.0,50,0.09,,SKC,0.29,VWS V14.01,2013-03-09 18:20:00,
2013-03-09 13:21:00,48.8,28.4,30.17,South,171,1.0,4.0,45,0.06,,SKC,0.21,VWS V14.01,2013-03-09 18:21:00,
2013-03-09 13:26:00,49.6,26.9,30.17,SSE,164,0.0,2.0,41,0.06,,SKC,0.22,VWS V14.01,2013-03-09 18:26:00,
2013-03-09 13:30:00,44.9,37.1,30.17,East,99,0.0,0.0,74,0.09,,SKC,0.31,VWS V14.01,2013-03-09 18:30:00,
2013-03-09 13:31:00,49.8,26.5,30.17,South,175,2.0,7.0,40,0.07,,SKC,0.23,VWS V14.01,2013-03-09 18:31:00,
2013-03-09 13:36:00,49.6,25.7,30.17,East,94,1.0,6.0,39,0.06,,SKC,0.23,VWS V14.01,2013-03-09 18:36:00,
2013-03-09 13:40:00,44.9,38.1,30.17,East,99,0.0,1.0,77,0.09,,SKC,0.32,VWS V14.01,2013-03-09 18:40:00,
2013-03-09 13:41:00,50.1,29.0,30.17,East,94,0.0,6.0,44,0.07,,SKC,0.24,VWS V14.01,2013-03-09 18:41:00,
2013-03-09 13:46:00,49.6,29.7,30.17,ESE,122,4.0,6.0,46,0.06,,SKC,0.24,VWS V14.01,2013-03-09 18:46:00,
2013-03-09 13:50:00,43.6,36.5,30.17,East,99,0.0,1.0,76,0.10,,SKC,0.34,VWS V14.01,2013-03-09 18:50:00,
2013-03-09 13:51:00,49.4,27.3,30.17,ESE,115,4.0,6.0,42,0.07,,SKC,0.25,VWS V14.01,2013-03-09 18:51:00,
2013-03-09 13:56:00,49.4,29.0,30.17,ESE,103,1.0,5.0,45,0.07,,SKC,0.26,VWS V14.01,2013-03-09 18:56:00,
2013-03-09 14:00:00,43.9,37.5,30.17,East,99,0.0,1.0,78,0.11,,SKC,0.36,VWS V14.01,2013-03-09 19:00:00,
2013-03-09 14:02:00,49.6,29.1,30.17,ESE,105,0.0,0.0,45,0.07,,SKC,0.26,VWS V14.01,2013-03-09 19:02:00,
2013-03-09 14:07:00,49.4,29.0,30.17,ESE,107,0.0,2.0,45,0.08,,SKC,0.27,VWS V14.01,2013-03-09 19:07:00,
2013-03-09 14:10:00,44.2,36.8,30.18,East,98,0.0,1.0,75,0.12,,SKC,0.38,VWS V14.01,2013-03-09 19:10:00,
2013-03-09 14:12:00,49.4,28.4,30.17,East,99,0.0,0.0,44,0.08,,SKC,0.28,VWS V14.01,2013-03-09 19:12:00,
2013-03-09 14:17:00,49.2,29.9,30.17,East,99,2.0,4.0,47,0.08,,SKC,0.28,VWS V14.01,2013-03-09 19:17:00,
2013-03-09 14:20:00,44.2,36.8,30.18,East,98,0.0,2.0,75,0.12,,SKC,0.40,VWS V14.01,2013-03-09 19:20:00,
2013-03-09 14:22:00,48.9,31.1,30.17,East,99,0.0,0.0,50,0.07,,SKC,0.29,VWS V14.01,2013-03-09 19:22:00,
2013-03-09 14:27:00,46.1,37.2,30.17,East,99,0.0,0.0,71,0.08,,SKC,0.30,VWS V14.01,2013-03-09 19:27:00,
2013-03-09 14:30:00,43.9,36.5,30.18,East,98,0.0,2.0,75,0.12,,SKC,0.41,VWS V14.01,2013-03-09 19:30:00,
2013-03-09 14:32:00,44.8,37.4,30.17,East,99,0.0,0.0,75,0.08,,SKC,0.31,VWS V14.01,2013-03-09 19:32:00,
2013-03-09 14:37:00,44.6,37.8,30.17,East,99,0.0,0.0,77,0.08,,SKC,0.31,VWS V14.01,2013-03-09 19:37:00,
2013-03-09 14:40:00,43.9,36.5,30.19,ENE,76,0.0,3.0,75,0.12,,SKC,0.43,VWS V14.01,2013-03-09 19:40:00,
2013-03-09 14:42:00,44.9,38.1,30.17,East,99,0.0,0.0,77,0.08,,SKC,0.32,VWS V14.01,2013-03-09 19:42:00,
2013-03-09 14:47:00,44.2,37.1,30.17,East,99,0.0,1.0,76,0.09,,SKC,0.33,VWS V14.01,2013-03-09 19:47:00,
2013-03-09 14:50:00,43.6,36.2,30.19,ENE,71,0.0,1.0,75,0.13,,SKC,0.45,VWS V14.01,2013-03-09 19:50:00,
2013-03-09 14:52:00,43.8,37.1,30.17,East,99,0.0,0.0,77,0.09,,SKC,0.34,VWS V14.01,2013-03-09 19:52:00,
2013-03-09 14:57:00,43.6,36.9,30.17,East,98,0.0,1.0,77,0.10,,SKC,0.35,VWS V14.01,2013-03-09 19:57:00,
2013-03-09 15:00:00,43.3,35.6,30.20,ENE,71,0.0,2.0,74,0.12,,SKC,0.46,VWS V14.01,2013-03-09 20:00:00,
2013-03-09 15:03:00,44.1,37.4,30.18,East,98,1.0,1.0,77,0.10,,SKC,0.36,VWS V14.01,2013-03-09 20:03:00,
2013-03-09 15:08:00,44.2,37.1,30.18,East,98,0.0,1.0,76,0.11,,SKC,0.37,VWS V14.01,2013-03-09 20:08:00,
2013-03-09 15:10:00,43.3,35.6,30.20,ENE,72,0.0,1.0,74,0.11,,SKC,0.47,VWS V14.01,2013-03-09 20:10:00,
2013-03-09 15:13:00,44.2,36.8,30.18,East,98,0.0,1.0,75,0.10,,SKC,0.38,VWS V14.01,2013-03-09 20:13:00,
2013-03-09 15:18:00,44.2,36.8,30.18,East,98,0.0,2.0,75,0.11,,SKC,0.39,VWS V14.01,2013-03-09 20:18:00,
2013-03-09 15:20:00,43.2,35.1,30.21,ENE,72,0.0,2.0,73,0.11,,SKC,0.49,VWS V14.01,2013-03-09 20:20:00,
2013-03-09 15:23:00,44.2,36.8,30.18,East,98,0.0,1.0,75,0.11,,SKC,0.40,VWS V14.01,2013-03-09 20:23:00,
2013-03-09 15:28:00,44.1,36.7,30.18,East,98,0.0,2.0,75,0.12,,SKC,0.41,VWS V14.01,2013-03-09 20:28:00,
2013-03-09 15:30:00,42.8,34.8,30.21,ENE,72,0.0,1.0,73,0.10,,SKC,0.50,VWS V14.01,2013-03-09 20:30:00,
2013-03-09 15:33:00,43.9,36.8,30.18,East,98,0.0,2.0,76,0.11,,SKC,0.42,VWS V14.01,2013-03-09 20:33:00,
2013-03-09 15:38:00,43.9,36.5,30.18,ENE,76,0.0,3.0,75,0.12,,SKC,0.43,VWS V14.01,2013-03-09 20:38:00,
2013-03-09 15:40:00,42.6,34.2,30.22,ENE,72,0.0,1.0,72,0.10,,SKC,0.51,VWS V14.01,2013-03-09 20:40:00,
2013-03-09 15:43:00,43.9,36.5,30.19,ENE,76,0.0,0.0,75,0.11,,SKC,0.43,VWS V14.01,2013-03-09 20:43:00,
2013-03-09 15:49:00,43.6,36.2,30.19,ENE,77,0.0,1.0,75,0.12,,SKC,0.44,VWS V14.01,2013-03-09 20:49:00,
2013-03-09 15:50:00,42.6,34.6,30.22,ENE,72,0.0,1.0,73,0.08,,SKC,0.51,VWS V14.01,2013-03-09 20:50:00,
2013-03-09 15:54:00,43.6,36.2,30.19,ENE,71,1.0,2.0,75,0.11,,SKC,0.45,VWS V14.01,2013-03-09 20:54:00,
2013-03-09 15:59:00,43.5,35.8,30.19,ENE,71,0.0,2.0,74,0.12,,SKC,0.46,VWS V14.01,2013-03-09 20:59:00,
2013-03-09 16:00:00,42.3,34.3,30.22,ENE,72,0.0,0.0,73,0.06,,SKC,0.51,VWS V14.01,2013-03-09 21:00:00,
2013-03-09 16:04:00,43.3,35.6,30.20,ENE,72,0.0,1.0,74,0.11,,SKC,0.47,VWS V14.01,2013-03-09 21:04:00,
2013-03-09 16:09:00,43.3,35.6,30.20,ENE,72,0.0,1.0,74,0.11,,SKC,0.47,VWS V14.01,2013-03-09 21:09:00,
2013-03-09 16:10:00,41.9,33.9,30.23,ENE,72,0.0,1.0,73,0.05,,SKC,0.51,VWS V14.01,2013-03-09 21:10:00,
2013-03-09 16:14:00,43.2,35.5,30.21,ENE,72,0.0,2.0,74,0.10,,SKC,0.48,VWS V14.01,2013-03-09 21:14:00,
2013-03-09 16:19:00,43.2,35.1,30.21,ENE,72,0.0,2.0,73,0.11,,SKC,0.49,VWS V14.01,2013-03-09 21:19:00,
2013-03-09 16:20:00,41.5,33.8,30.23,ENE,72,0.0,1.0,74,0.04,,SKC,0.51,VWS V14.01,2013-03-09 21:20:00,
2013-03-09 16:24:00,43.1,34.7,30.21,ENE,72,0.0,0.0,72,0.09,,SKC,0.49,VWS V14.01,2013-03-09 21:24:00,
2013-03-09 16:29:00,42.9,34.8,30.21,ENE,72,0.0,1.0,73,0.10,,SKC,0.50,VWS V14.01,2013-03-09 21:29:00,
2013-03-09 16:30:00,41.1,33.5,30.23,ENE,72,0.0,0.0,74,0.02,,SKC,0.51,VWS V14.01,2013-03-09 21:30:00,
2013-03-09 16:35:00,42.8,34.8,30.22,ENE,72,0.0,0.0,73,0.09,,SKC,0.50,VWS V14.01,2013-03-09 21:35:00,
2013-03-09 16:40:00,42.8,34.8,30.22,ENE,72,0.0,1.0,73,0.10,,SKC,0.51,VWS V14.01,2013-03-09 21:40:00,
2013-03-09 16:45:00,42.6,34.2,30.22,ENE,72,0.0,0.0,72,0.08,,SKC,0.51,VWS V14.01,2013-03-09 21:45:00,
2013-03-09 16:50:00,42.6,34.6,30.22,ENE,72,0.0,1.0,73,0.08,,SKC,0.51,VWS V14.01,2013-03-09 21:50:00,
2013-03-09 16:55:00,42.5,34.5,30.22,ENE,72,0.0,0.0,73,0.06,,SKC,0.51,VWS V14.01,2013-03-09 21:55:00,
2013-03-09 17:00:00,42.3,34.3,30.22,ENE,72,0.0,0.0,73,0.06,,SKC,0.51,VWS V14.01,2013-03-09 22:00:00,
2013-03-09 17:05:00,42.2,34.2,30.23,ENE,72,0.0,0.0,73,0.05,,SKC,0.51,VWS V14.01,2013-03-09 22:05:00,
2013-03-09 17:10:00,42.1,34.1,30.23,ENE,72,0.0,0.0,73,0.05,,SKC,0.51,VWS V14.01,2013-03-09 22:10:00,
2013-03-09 17:15:00,41.8,33.8,30.23,ENE,72,0.0,0.0,73,0.04,,SKC,0.51,VWS V14.01,2013-03-09 22:15:00,
2013-03-09 17:20:00,41.6,33.9,30.23,ENE,72,0.0,1.0,74,0.04,,SKC,0.51,VWS V14.01,2013-03-09 22:20:00,
2013-03-09 17:25:00,41.3,33.7,30.23,ENE,72,0.0,0.0,74,0.02,,SKC,0.51,VWS V14.01,2013-03-09 22:25:00,
2013-03-09 17:30:00,41.2,33.5,30.23,ENE,72,0.0,0.0,74,0.02,,SKC,0.51,VWS V14.01,2013-03-09 22:30:00,
2013-03-09 17:35:00,40.9,33.3,30.23,ENE,72,0.0,0.0,74,0.01,,SKC,0.51,VWS V14.01,2013-03-09 22:35:00,
2013-03-09 17:40:00,40.6,33.3,30.23,ENE,72,0.0,0.0,75,0.01,,SKC,0.51,VWS V14.01,2013-03-09 22:40:00,
2013-03-09 17:46:00,40.5,33.2,30.23,ENE,72,0.0,0.0,75,0.00,,SKC,0.51,VWS V14.01,2013-03-09 22:46:00,
2013-03-09 17:50:00,38.0,32.4,30.25,ENE,72,0.0,0.0,80,0.01,,SKC,0.52,VWS V14.01,2013-03-09 22:50:00,
2013-03-09 17:51:00,40.3,33.3,30.24,ENE,72,0.0,0.0,76,0.00,,SKC,0.51,VWS V14.01,2013-03-09 22:51:00,
2013-03-09 17:56:00,40.1,33.2,30.24,ENE,72,0.0,0.0,76,0.01,,SKC,0.52,VWS V14.01,2013-03-09 22:56:00,
2013-03-09 18:00:00,37.8,32.5,30.26,ENE,72,0.0,1.0,81,0.00,,SKC,0.52,VWS V14.01,2013-03-09 23:00:00,
2013-03-09 18:01:00,39.9,33.3,30.24,ENE,72,0.0,1.0,77,0.01,,SKC,0.52,VWS V14.01,2013-03-09 23:01:00,
2013-03-09 18:06:00,39.6,33.0,30.24,ENE,72,0.0,0.0,77,0.01,,SKC,0.52,VWS V14.01,2013-03-09 23:06:00,
2013-03-09 18:10:00,37.5,32.2,30.26,ENE,72,0.0,2.0,81,0.00,,SKC,0.52,VWS V14.01,2013-03-09 23:10:00,
2013-03-09 18:11:00,39.5,32.9,30.24,ENE,72,0.0,0.0,77,0.01,,SKC,0.52,VWS V14.01,2013-03-09 23:11:00,
2013-03-09 18:16:00,39.2,32.9,30.25,ENE,72,0.0,1.0,78,0.01,,SKC,0.52,VWS V14.01,2013-03-09 23:16:00,
2013-03-09 18:20:00,37.3,32.3,30.26,ENE,72,0.0,2.0,82,0.00,,SKC,0.52,VWS V14.01,2013-03-09 23:20:00,
2013-03-09 18:21:00,38.9,32.6,30.25,ENE,72,0.0,1.0,78,0.01,,SKC,0.52,VWS V14.01,2013-03-09 23:21:00,
2013-03-09 18:26:00,38.8,32.5,30.25,ENE,72,0.0,0.0,78,0.01,,SKC,0.52,VWS V14.01,2013-03-09 23:26:00,
2013-03-09 18:30:00,37.2,32.2,30.26,ENE,72,0.0,2.0,82,0.00,,SKC,0.52,VWS V14.01,2013-03-09 23:30:00,
2013-03-09 18:31:00,38.6,32.7,30.25,ENE,72,0.0,0.0,79,0.01,,SKC,0.52,VWS V14.01,2013-03-09 23:31:00,
2013-03-09 18:36:00,38.5,32.6,30.25,ENE,72,0.0,0.0,79,0.01,,SKC,0.52,VWS V14.01,2013-03-09 23:36:00,
2013-03-09 18:40:00,37.0,32.0,30.26,ENE,72,0.0,1.0,82,0.00,,SKC,0.52,VWS V14.01,2013-03-09 23:40:00,
2013-03-09 18:41:00,38.3,32.7,30.25,ENE,72,0.0,0.0,80,0.01,,SKC,0.52,VWS V14.01,2013-03-09 23:41:00,
2013-03-09 18:46:00,38.2,32.6,30.25,ENE,72,0.0,0.0,80,0.01,,SKC,0.52,VWS V14.01,2013-03-09 23:46:00,
2013-03-09 18:50:00,36.9,32.2,30.27,ENE,72,0.0,1.0,83,0.00,,SKC,0.52,VWS V14.01,2013-03-09 23:50:00,
2013-03-09 18:51:00,38.0,32.4,30.25,ENE,72,0.0,0.0,80,0.01,,SKC,0.52,VWS V14.01,2013-03-09 23:51:00,
2013-03-09 18:56:00,37.9,32.3,30.25,ENE,72,0.0,1.0,80,0.00,,SKC,0.52,VWS V14.01,2013-03-09 23:56:00,
2013-03-09 19:00:00,36.6,31.9,30.27,ENE,72,0.0,1.0,83,0.00,,SKC,0.52,VWS V14.01,2013-03-10 00:00:00,
2013-03-09 19:02:00,37.8,32.5,30.26,ENE,72,0.0,0.0,81,0.00,,SKC,0.52,VWS V14.01,2013-03-10 00:02:00,
2013-03-09 19:07:00,37.6,32.3,30.26,ENE,72,0.0,0.0,81,0.00,,SKC,0.52,VWS V14.01,2013-03-10 00:07:00,
2013-03-09 19:10:00,36.3,31.6,30.27,ENE,72,0.0,0.0,83,0.00,,SKC,0.52,VWS V14.01,2013-03-10 00:10:00,
2013-03-09 19:12:00,37.5,32.2,30.26,ENE,72,0.0,0.0,81,0.00,,SKC,0.52,VWS V14.01,2013-03-10 00:12:00,
2013-03-09 19:17:00,37.5,32.2,30.26,ENE,72,1.0,1.0,81,0.00,,SKC,0.52,VWS V14.01,2013-03-10 00:17:00,
2013-03-09 19:20:00,36.0,31.6,30.28,ENE,72,0.0,0.0,84,0.00,,SKC,0.52,VWS V14.01,2013-03-10 00:20:00,
2013-03-09 19:22:00,37.3,32.3,30.26,ENE,72,0.0,0.0,82,0.00,,SKC,0.52,VWS V14.01,2013-03-10 00:22:00,
2013-03-09 19:27:00,37.3,32.3,30.26,ENE,72,0.0,0.0,82,0.00,,SKC,0.52,VWS V14.01,2013-03-10 00:27:00,
2013-03-09 19:30:00,35.6,31.2,30.28,ENE,72,0.0,0.0,84,0.00,,SKC,0.52,VWS V14.01,2013-03-10 00:30:00,
2013-03-09 19:32:00,37.2,32.2,30.26,ENE,72,0.0,0.0,82,0.00,,SKC,0.52,VWS V14.01,2013-03-10 00:32:00,
2013-03-09 19:37:00,37.2,32.2,30.26,ENE,72,0.0,0.0,82,0.00,,SKC,0.52,VWS V14.01,2013-03-10 00:37:00,
2013-03-09 19:40:00,35.0,30.7,30.28,ENE,72,0.0,0.0,84,0.00,,SKC,0.52,VWS V14.01,2013-03-10 00:40:00,
2013-03-09 19:42:00,37.0,32.0,30.26,ENE,72,0.0,0.0,82,0.00,,SKC,0.52,VWS V14.01,2013-03-10 00:42:00,
2013-03-09 19:47:00,36.9,32.2,30.27,ENE,72,0.0,0.0,83,0.00,,SKC,0.52,VWS V14.01,2013-03-10 00:47:00,
2013-03-09 19:50:00,34.4,30.1,30.28,ENE,72,0.0,0.0,84,0.00,,SKC,0.52,VWS V14.01,2013-03-10 00:50:00,
2013-03-09 19:52:00,36.8,32.1,30.27,ENE,72,0.0,0.0,83,0.00,,SKC,0.52,VWS V14.01,2013-03-10 00:52:00,
2013-03-09 19:57:00,36.6,31.9,30.27,ENE,72,0.0,1.0,83,0.00,,SKC,0.52,VWS V14.01,2013-03-10 00:57:00,
2013-03-09 20:00:00,34.0,29.7,30.28,ENE,72,0.0,0.0,84,0.00,,SKC,0.52,VWS V14.01,2013-03-10 01:00:00,
2013-03-09 20:02:00,36.5,31.8,30.27,ENE,72,0.0,0.0,83,0.00,,SKC,0.52,VWS V14.01,2013-03-10 01:02:00,
2013-03-09 20:07:00,36.5,31.8,30.27,ENE,72,0.0,0.0,83,0.00,,SKC,0.52,VWS V14.01,2013-03-10 01:07:00,
2013-03-09 20:10:00,33.8,30.1,30.28,ENE,72,0.0,1.0,86,0.00,,SKC,0.52,VWS V14.01,2013-03-10 01:10:00,
2013-03-09 20:12:00,36.2,31.8,30.27,ENE,72,0.0,0.0,84,0.00,,SKC,0.52,VWS V14.01,2013-03-10 01:12:00,
2013-03-09 20:17:00,36.0,31.6,30.28,ENE,72,0.0,0.0,84,0.00,,SKC,0.52,VWS V14.01,2013-03-10 01:17:00,
2013-03-09 20:20:00,33.8,30.1,30.28,ENE,72,0.0,0.0,86,0.00,,SKC,0.52,VWS V14.01,2013-03-10 01:20:00,
2013-03-09 20:23:00,35.9,31.5,30.28,ENE,72,0.0,0.0,84,0.00,,SKC,0.52,VWS V14.01,2013-03-10 01:23:00,
2013-03-09 20:28:00,35.8,31.5,30.28,ENE,72,0.0,0.0,84,0.00,,SKC,0.52,VWS V14.01,2013-03-10 01:28:00,
2013-03-09 20:30:00,33.8,30.4,30.28,ENE,72,0.0,0.0,87,0.00,,SKC,0.52,VWS V14.01,2013-03-10 01:30:00,
2013-03-09 20:33:00,35.5,31.1,30.28,ENE,72,0.0,0.0,84,0.00,,SKC,0.52,VWS V14.01,2013-03-10 01:33:00,
2013-03-09 20:38:00,35.3,31.0,30.28,ENE,72,0.0,0.0,84,0.00,,SKC,0.52,VWS V14.01,2013-03-10 01:38:00,
2013-03-09 20:40:00,33.7,30.2,30.29,ENE,72,0.0,0.0,87,0.00,,SKC,0.52,VWS V14.01,2013-03-10 01:40:00,
2013-03-09 20:43:00,35.0,30.7,30.28,ENE,72,0.0,0.0,84,0.00,,SKC,0.52,VWS V14.01,2013-03-10 01:43:00,
2013-03-09 20:48:00,34.7,30.4,30.28,ENE,72,0.0,0.0,84,0.00,,SKC,0.52,VWS V14.01,2013-03-10 01:48:00,
2013-03-09 20:50:00,33.5,30.0,30.29,ENE,72,0.0,1.0,87,0.00,,SKC,0.52,VWS V14.01,2013-03-10 01:50:00,
2013-03-09 20:53:00,34.4,30.1,30.28,ENE,72,0.0,0.0,84,0.00,,SKC,0.52,VWS V14.01,2013-03-10 01:53:00,
2013-03-09 20:58:00,34.1,29.8,30.28,ENE,72,0.0,0.0,84,0.00,,SKC,0.52,VWS V14.01,2013-03-10 01:58:00,
2013-03-09 21:00:00,33.4,30.0,30.29,ENE,72,0.0,2.0,87,0.00,,SKC,0.52,VWS V14.01,2013-03-10 02:00:00,
2013-03-09 21:03:00,34.0,30.0,30.29,ENE,72,0.0,0.0,85,0.00,,SKC,0.52,VWS V14.01,2013-03-10 02:03:00,
2013-03-09 21:08:00,33.8,29.8,30.29,ENE,72,0.0,1.0,85,0.00,,SKC,0.52,VWS V14.01,2013-03-10 02:08:00,
2013-03-09 21:10:00,33.2,29.8,30.29,ENE,72,0.0,0.0,87,0.00,,SKC,0.52,VWS V14.01,2013-03-10 02:10:00,
2013-03-09 21:13:00,33.8,30.1,30.28,ENE,72,0.0,0.0,86,0.00,,SKC,0.52,VWS V14.01,2013-03-10 02:13:00,
2013-03-09 21:19:00,33.8,30.1,30.28,ENE,72,0.0,0.0,86,0.00,,SKC,0.52,VWS V14.01,2013-03-10 02:19:00,
2013-03-09 21:20:00,33.1,29.7,30.29,ENE,72,0.0,0.0,87,0.00,,SKC,0.52,VWS V14.01,2013-03-10 02:20:00,
2013-03-09 21:24:00,33.8,30.1,30.28,ENE,72,0.0,0.0,86,0.00,,SKC,0.52,VWS V14.01,2013-03-10 02:24:00,
2013-03-09 21:29:00,33.8,30.1,30.28,ENE,72,0.0,0.0,86,0.00,,SKC,0.52,VWS V14.01,2013-03-10 02:29:00,
2013-03-09 21:30:00,32.9,29.7,30.29,ENE,72,0.0,0.0,88,0.00,,SKC,0.52,VWS V14.01,2013-03-10 02:30:00,
2013-03-09 21:34:00,33.8,30.4,30.28,ENE,72,0.0,0.0,87,0.00,,SKC,0.52,VWS V14.01,2013-03-10 02:34:00,
2013-03-09 21:39:00,33.7,30.2,30.29,ENE,72,0.0,0.0,87,0.00,,SKC,0.52,VWS V14.01,2013-03-10 02:39:00,
2013-03-09 21:40:00,32.7,29.5,30.29,ENE,72,0.0,0.0,88,0.00,,SKC,0.52,VWS V14.01,2013-03-10 02:40:00,
2013-03-09 21:44:00,33.7,30.2,30.29,ENE,72,0.0,1.0,87,0.00,,SKC,0.52,VWS V14.01,2013-03-10 02:44:00,
2013-03-09 21:49:00,33.5,30.0,30.29,ENE,72,0.0,1.0,87,0.00,,SKC,0.52,VWS V14.01,2013-03-10 02:49:00,
2013-03-09 21:50:00,32.4,29.2,30.29,ENE,72,0.0,0.0,88,0.00,,SKC,0.52,VWS V14.01,2013-03-10 02:50:00,
2013-03-09 21:54:00,33.5,30.0,30.29,ENE,72,0.0,0.0,87,0.00,,SKC,0.52,VWS V14.01,2013-03-10 02:54:00,
2013-03-09 21:59:00,33.5,30.0,30.29,ENE,72,0.0,2.0,87,0.00,,SKC,0.52,VWS V14.01,2013-03-10 02:59:00,
2013-03-09 22:00:00,32.2,29.0,30.29,ENE,72,0.0,0.0,88,0.00,,SKC,0.52,VWS V14.01,2013-03-10 03:00:00,
2013-03-09 22:05:00,33.4,30.0,30.29,ENE,72,0.0,0.0,87,0.00,,SKC,0.52,VWS V14.01,2013-03-10 03:05:00,
2013-03-09 22:10:00,33.4,30.0,30.29,ENE,72,0.0,0.0,87,0.00,,SKC,0.52,VWS V14.01,2013-03-10 03:10:00,
2013-03-09 22:15:00,33.2,29.8,30.29,ENE,72,0.0,0.0,87,0.00,,SKC,0.52,VWS V14.01,2013-03-10 03:15:00,
2013-03-09 22:20:00,33.1,29.7,30.29,ENE,72,0.0,0.0,87,0.00,,SKC,0.52,VWS V14.01,2013-03-10 03:20:00,
2013-03-09 22:25:00,33.1,29.9,30.29,ENE,72,0.0,0.0,88,0.00,,SKC,0.52,VWS V14.01,2013-03-10 03:25:00,
2013-03-09 22:30:00,32.9,29.7,30.29,ENE,72,0.0,0.0,88,0.00,,SKC,0.52,VWS V14.01,2013-03-10 03:30:00,
2013-03-09 22:35:00,32.8,29.6,30.29,ENE,72,0.0,0.0,88,0.00,,SKC,0.52,VWS V14.01,2013-03-10 03:35:00,
2013-03-09 22:40:00,33.2,30.6,30.31,ENE,74,0.0,1.0,90,0.00,,SKC,0.52,VWS V14.01,2013-03-10 03:40:00,
2013-03-09 22:41:00,32.7,29.5,30.29,ENE,72,0.0,0.0,88,0.00,,SKC,0.52,VWS V14.01,2013-03-10 03:41:00,
2013-03-09 22:46:00,32.5,29.4,30.29,ENE,72,0.0,0.0,88,0.00,,SKC,0.52,VWS V14.01,2013-03-10 03:46:00,
2013-03-09 22:50:00,33.4,31.1,30.31,ENE,68,0.0,2.0,91,0.00,,SKC,0.00,VWS V14.01,2013-03-10 03:50:00,
2013-03-09 22:51:00,32.5,29.4,30.29,ENE,72,0.0,0.0,88,0.00,,SKC,0.52,VWS V14.01,2013-03-10 03:51:00,
2013-03-09 22:56:00,32.4,29.2,30.29,ENE,72,0.0,0.0,88,0.00,,SKC,0.52,VWS V14.01,2013-03-10 03:56:00,
2013-03-09 23:00:00,33.5,31.2,30.31,ENE,68,0.0,1.0,91,0.00,,SKC,0.00,VWS V14.01,2013-03-10 04:00:00,
2013-03-09 23:01:00,32.2,29.0,30.29,ENE,72,0.0,0.0,88,0.00,,SKC,0.52,VWS V14.01,2013-03-10 04:01:00,
2013-03-09 23:06:00,32.1,29.0,30.29,ENE,72,0.0,1.0,88,0.00,,SKC,0.52,VWS V14.01,2013-03-10 04:06:00,
2013-03-09 23:10:00,33.7,31.4,30.31,ENE,68,0.0,3.0,91,0.00,,SKC,0.00,VWS V14.01,2013-03-10 04:10:00,
2013-03-09 23:11:00,32.1,29.0,30.30,ENE,72,0.0,1.0,88,0.00,,SKC,0.52,VWS V14.01,2013-03-10 04:11:00,
2013-03-09 23:16:00,32.2,29.3,30.30,ENE,74,0.0,2.0,89,0.00,,SKC,0.52,VWS V14.01,2013-03-10 04:16:00,
2013-03-09 23:20:00,33.8,31.7,30.31,ENE,68,0.0,2.0,92,0.00,,SKC,0.00,VWS V14.01,2013-03-10 04:20:00,
2013-03-09 23:21:00,32.5,29.6,30.30,ENE,74,0.0,2.0,89,0.00,,SKC,0.52,VWS V14.01,2013-03-10 04:21:00,
2013-03-09 23:26:00,32.7,30.1,30.30,ENE,74,0.0,2.0,90,0.00,,SKC,0.52,VWS V14.01,2013-03-10 04:26:00,
2013-03-09 23:30:00,33.8,31.7,30.32,ENE,68,0.0,2.0,92,0.00,,SKC,0.00,VWS V14.01,2013-03-10 04:30:00,
2013-03-09 23:32:00,32.8,30.2,30.30,ENE,74,1.0,1.0,90,0.00,,SKC,0.52,VWS V14.01,2013-03-10 04:32:00,
2013-03-09 23:37:00,32.9,30.3,30.30,ENE,74,0.0,1.0,90,0.00,,SKC,0.52,VWS V14.01,2013-03-10 04:37:00,
2013-03-09 23:40:00,34.0,31.9,30.32,ENE,68,0.0,3.0,92,0.00,,SKC,0.00,VWS V14.01,2013-03-10 04:40:00,
2013-03-09 23:42:00,33.2,30.6,30.31,ENE,74,0.0,0.0,90,0.00,,SKC,0.52,VWS V14.01,2013-03-10 04:42:00,
2013-03-09 23:50:00,34.1,32.0,30.32,East,90,0.0,2.0,92,0.00,,SKC,0.00,VWS V14.01,2013-03-10 04:50:00,